Back to catalog

STARLINK-32011

AliveCommunicationsVLEO
NORAD 60030·PAYLOAD·🇺🇸 United States

Launched Jun 8, 2024 from Cape Canaveral Space Force Station

Loading…

Next Passes (next 24 hours)

TLE

FreshSource: CelesTrak SupGP

Epoch: Sep 14, 2026, 14:09 UTC

1 60030C 24111Q   26257.59006944  .00005826  00000+0  17216-3 0  2574
2 60030  53.1572 273.6721 0001419  74.2465 117.4812 15.34379884    12

Track STARLINK-32011 in real time with AllMySat

Download on the App Store